TimeAKST,TemperatureF,Dew PointF,Humidity,Sea Level PressureIn,VisibilityMPH,Wind Direction,Wind SpeedMPH,Gust SpeedMPH,PrecipitationIn,Events,Conditions,WindDirDegrees,DateUTC
12:16 AM,42.8,30.2,61,29.28,10.0,North,16.1,23.0,N/A,,Overcast,360,2014-02-26 09:16:00
12:36 AM,42.8,28.4,57,29.27,10.0,NNW,19.6,32.2,N/A,,Overcast,330,2014-02-26 09:36:00
12:56 AM,42.8,30.2,61,29.27,10.0,North,16.1,34.5,N/A,,Overcast,10,2014-02-26 09:56:00
1:16 AM,42.8,30.2,61,29.26,10.0,NNE,21.9,28.8,N/A,,Overcast,20,2014-02-26 10:16:00
1:36 AM,41.0,30.2,65,29.26,10.0,North,19.6,27.6,N/A,,Overcast,10,2014-02-26 10:36:00
1:56 AM,42.8,30.2,61,29.25,10.0,NNE,17.3,28.8,N/A,,Overcast,30,2014-02-26 10:56:00
2:16 AM,42.8,30.2,61,29.24,10.0,NNE,20.7,28.8,N/A,,Overcast,20,2014-02-26 11:16:00
2:36 AM,42.8,30.2,61,29.24,10.0,NNE,19.6,28.8,N/A,,Overcast,20,2014-02-26 11:36:00
2:56 AM,42.8,30.2,61,29.23,10.0,NNE,19.6,28.8,N/A,,Overcast,20,2014-02-26 11:56:00
3:16 AM,42.8,30.2,61,29.23,10.0,ENE,15.0,23.0,N/A,,Overcast,60,2014-02-26 12:16:00
3:36 AM,41.0,30.2,65,29.23,10.0,NE,15.0,19.6,N/A,,Overcast,40,2014-02-26 12:36:00
3:56 AM,44.6,33.8,66,29.20,10.0,ESE,20.7,32.2,N/A,,Scattered Clouds,110,2014-02-26 12:56:00
4:16 AM,44.6,33.8,66,29.19,10.0,ESE,28.8,36.8,N/A,,Clear,110,2014-02-26 13:16:00
4:36 AM,44.6,33.8,66,29.18,10.0,ESE,26.5,32.2,N/A,,Clear,110,2014-02-26 13:36:00
4:56 AM,46.4,33.8,62,29.18,10.0,ESE,19.6,35.7,N/A,,Clear,120,2014-02-26 13:56:00
5:16 AM,46.4,33.8,62,29.17,10.0,ESE,26.5,35.7,N/A,,Clear,110,2014-02-26 14:16:00
5:36 AM,46.4,33.8,62,29.17,10.0,ESE,24.2,36.8,N/A,,Clear,120,2014-02-26 14:36:00
5:56 AM,46.4,33.8,62,29.17,10.0,ESE,26.5,38.0,N/A,,Clear,120,2014-02-26 14:56:00
6:16 AM,48.2,33.8,58,29.16,10.0,SE,28.8,40.3,N/A,,Clear,130,2014-02-26 15:16:00
6:36 AM,46.4,33.8,62,29.16,10.0,ESE,32.2,38.0,N/A,,Clear,120,2014-02-26 15:36:00
6:56 AM,46.4,33.8,62,29.15,10.0,ESE,34.5,39.1,N/A,,Clear,120,2014-02-26 15:56:00
7:16 AM,46.4,33.8,62,29.16,10.0,SE,23.0,-,N/A,,Clear,130,2014-02-26 16:16:00
7:36 AM,46.4,33.8,62,29.16,10.0,ESE,25.3,32.2,N/A,,Clear,120,2014-02-26 16:36:00
7:56 AM,46.4,33.8,62,29.17,10.0,ESE,17.3,34.5,N/A,,Clear,120,2014-02-26 16:56:00
8:16 AM,44.6,33.8,66,29.16,10.0,ESE,25.3,29.9,N/A,,Clear,120,2014-02-26 17:16:00
8:36 AM,46.4,33.8,62,29.15,10.0,ESE,27.6,36.8,N/A,,Clear,120,2014-02-26 17:36:00
8:56 AM,46.4,32.0,57,29.15,10.0,SE,31.1,40.3,N/A,,Clear,130,2014-02-26 17:56:00
9:16 AM,46.4,33.8,62,29.15,10.0,SE,33.4,42.6,N/A,,Clear,130,2014-02-26 18:16:00
9:36 AM,46.4,33.8,62,29.16,10.0,ESE,32.2,38.0,N/A,,Clear,120,2014-02-26 18:36:00
9:56 AM,46.4,33.8,62,29.17,10.0,ESE,27.6,35.7,N/A,,Clear,120,2014-02-26 18:56:00
10:16 AM,46.4,33.8,62,29.17,10.0,ESE,25.3,34.5,N/A,,Clear,120,2014-02-26 19:16:00
10:36 AM,48.2,33.8,58,29.18,10.0,ESE,21.9,34.5,N/A,,Clear,110,2014-02-26 19:36:00
10:56 AM,48.2,35.6,62,29.17,10.0,ESE,28.8,38.0,N/A,,Clear,120,2014-02-26 19:56:00
11:16 AM,48.2,35.6,62,29.17,10.0,ESE,28.8,38.0,N/A,,Clear,120,2014-02-26 20:16:00
11:36 AM,50.0,35.6,58,29.17,10.0,ESE,26.5,35.7,N/A,,Clear,120,2014-02-26 20:36:00
11:56 AM,50.0,35.6,58,29.16,10.0,ESE,29.9,42.6,N/A,,Clear,120,2014-02-26 20:56:00
12:16 PM,50.0,35.6,58,29.17,10.0,ESE,25.3,32.2,N/A,,Clear,120,2014-02-26 21:16:00
12:36 PM,50.0,33.8,54,29.17,10.0,ESE,28.8,39.1,N/A,,Clear,120,2014-02-26 21:36:00
12:56 PM,50.0,35.6,58,29.17,10.0,ESE,24.2,34.5,N/A,,Clear,120,2014-02-26 21:56:00
1:16 PM,50.0,35.6,58,29.17,10.0,SE,32.2,40.3,N/A,,Clear,130,2014-02-26 22:16:00
1:36 PM,50.0,35.6,58,29.18,10.0,ESE,28.8,33.4,N/A,,Clear,120,2014-02-26 22:36:00
1:56 PM,50.0,33.8,54,29.17,10.0,ESE,23.0,33.4,N/A,,Clear,120,2014-02-26 22:56:00
2:16 PM,50.0,33.8,54,29.17,10.0,SE,27.6,40.3,N/A,,Clear,130,2014-02-26 23:16:00
2:36 PM,50.0,35.6,58,29.17,10.0,ESE,21.9,35.7,N/A,,Clear,120,2014-02-26 23:36:00
2:56 PM,-9999,-9999,N/A,29.16,10.0,ESE,27.6,35.7,N/A,,Clear,120,2014-02-26 23:56:00
3:16 PM,50.0,33.8,54,29.17,10.0,ESE,26.5,36.8,N/A,,Clear,120,2014-02-27 00:16:00
3:36 PM,50.0,33.8,54,29.17,10.0,SE,27.6,35.7,N/A,,Clear,130,2014-02-27 00:36:00
3:56 PM,48.2,33.8,58,29.16,10.0,ESE,23.0,39.1,N/A,,Clear,120,2014-02-27 00:56:00
4:16 PM,-9999,-9999,N/A,29.14,10.0,SE,29.9,40.3,N/A,,Clear,130,2014-02-27 01:16:00
4:36 PM,48.2,33.8,58,29.16,10.0,SE,26.5,35.7,N/A,,Clear,130,2014-02-27 01:36:00
4:56 PM,48.2,33.8,58,29.15,10.0,ESE,29.9,38.0,N/A,,Clear,120,2014-02-27 01:56:00
5:16 PM,48.2,33.8,58,29.16,10.0,ESE,32.2,39.1,N/A,,Clear,120,2014-02-27 02:16:00
5:36 PM,48.2,33.8,58,29.16,10.0,SE,24.2,40.3,N/A,,Clear,130,2014-02-27 02:36:00
5:56 PM,-9999,-9999,N/A,29.15,10.0,ESE,32.2,41.4,N/A,,Clear,120,2014-02-27 02:56:00
6:16 PM,46.4,32.0,57,29.17,10.0,ESE,29.9,39.1,N/A,,Clear,120,2014-02-27 03:16:00
6:36 PM,46.4,32.0,57,29.17,10.0,ESE,28.8,35.7,N/A,,Clear,120,2014-02-27 03:36:00
6:56 PM,44.6,30.2,57,29.19,10.0,ESE,23.0,27.6,N/A,,Clear,120,2014-02-27 03:56:00
7:16 PM,44.6,30.2,57,29.20,10.0,ESE,27.6,34.5,N/A,,Clear,120,2014-02-27 04:16:00
7:36 PM,44.6,30.2,57,29.21,10.0,ESE,20.7,34.5,N/A,,Clear,120,2014-02-27 04:36:00
7:56 PM,44.6,30.2,57,29.21,10.0,ESE,21.9,34.5,N/A,,Clear,110,2014-02-27 04:56:00
8:16 PM,44.6,30.2,57,29.20,10.0,ESE,27.6,33.4,N/A,,Clear,120,2014-02-27 05:16:00
8:36 PM,44.6,30.2,57,29.21,10.0,SE,29.9,35.7,N/A,,Clear,130,2014-02-27 05:36:00
8:56 PM,44.6,30.2,57,29.20,10.0,SE,28.8,40.3,N/A,,Clear,130,2014-02-27 05:56:00
9:16 PM,44.6,30.2,57,29.19,10.0,SE,34.5,48.3,N/A,,Clear,140,2014-02-27 06:16:00
9:36 PM,44.6,32.0,61,29.20,10.0,SE,35.7,44.9,N/A,,Clear,140,2014-02-27 06:36:00
9:56 PM,44.6,32.0,61,29.20,10.0,SE,33.4,48.3,N/A,,Clear,140,2014-02-27 06:56:00
10:16 PM,44.6,30.2,57,29.20,10.0,SE,38.0,48.3,N/A,,Clear,140,2014-02-27 07:16:00
10:36 PM,44.6,30.2,57,29.21,10.0,SE,36.8,50.6,N/A,,Clear,140,2014-02-27 07:36:00
10:56 PM,44.6,30.2,57,29.20,10.0,SE,42.6,49.5,N/A,,Clear,130,2014-02-27 07:56:00
11:16 PM,42.8,32.0,66,29.21,10.0,SE,38.0,49.5,N/A,,Clear,140,2014-02-27 08:16:00
11:36 PM,42.8,32.0,66,29.22,10.0,SE,39.1,46.0,N/A,,Clear,140,2014-02-27 08:36:00
11:56 PM,42.8,30.2,61,29.22,10.0,SE,41.4,48.3,N/A,,Clear,140,2014-02-27 08:56:00